EN

Hourly Weather Aberdare

Today, 19 June, Saturday

Time Temperature Precipitation Wind Pressure Humidity
00:00 +12°C° 0 mm 1 mps 740 mmHg 93%
01:00 +12°C° 0 mm 1 mps 739 mmHg 93%
02:00 +11°C° 0 mm 1 mps 739 mmHg 93%
03:00 +11°C° 0 mm 1 mps 739 mmHg 93%
04:00 +11°C° 0 mm 1 mps 739 mmHg 93%
05:00 +12°C° 0 mm 1 mps 739 mmHg 92%
06:00 +12°C° 0 mm 1 mps 739 mmHg 92%
07:00 +13°C° 0 mm 1 mps 739 mmHg 88%
08:00 +13°C° 0 mm 2 mps 739 mmHg 85%
09:00 +14°C° 0 mm 2 mps 739 mmHg 82%
10:00 +14°C° 0.1 mm 2 mps 739 mmHg 81%
11:00 +14°C° 0.1 mm 3 mps 738 mmHg 81%
12:00 +14°C° 0.1 mm 3 mps 738 mmHg 80%
13:00 +14°C° 0.1 mm 4 mps 738 mmHg 80%
14:00 +15°C° 0.1 mm 4 mps 737 mmHg 80%
15:00 +15°C° 0.1 mm 4 mps 737 mmHg 80%
16:00 +15°C° 0.1 mm 4 mps 736 mmHg 81%
17:00 +15°C° 0.1 mm 4 mps 736 mmHg 82%
18:00 +14°C° 0.1 mm 3 mps 735 mmHg 84%
19:00 +14°C° 0.1 mm 3 mps 735 mmHg 86%
20:00 +14°C° 0.1 mm 2 mps 735 mmHg 89%
21:00 +13°C° 0.1 mm 2 mps 735 mmHg 92%
22:00 +13°C° 0.1 mm 2 mps 735 mmHg 93%
23:00 +13°C° 0.1 mm 2 mps 734 mmHg 95%

Tomorrow, 20 June, Sunday

Time Temperature Precipitation Wind Pressure Humidity
00:00 +13°C° 0.1 mm 2 mps 734 mmHg 96%
01:00 +13°C° 0 mm 2 mps 734 mmHg 96%
02:00 +13°C° 0 mm 2 mps 733 mmHg 97%
03:00 +13°C° 0 mm 2 mps 733 mmHg 97%
04:00 +13°C° 0.1 mm 2 mps 733 mmHg 97%
05:00 +12°C° 0.1 mm 3 mps 733 mmHg 97%
06:00 +12°C° 0.1 mm 3 mps 733 mmHg 97%
07:00 +12°C° 0 mm 3 mps 733 mmHg 97%
08:00 +12°C° 0 mm 3 mps 733 mmHg 96%
09:00 +13°C° 0 mm 2 mps 734 mmHg 96%
10:00 +13°C° 0 mm 2 mps 734 mmHg 96%
11:00 +13°C° 0 mm 2 mps 734 mmHg 95%
12:00 +14°C° 0 mm 2 mps 734 mmHg 95%
13:00 +14°C° 0 mm 2 mps 734 mmHg 94%
14:00 +15°C° 0 mm 2 mps 734 mmHg 92%
15:00 +15°C° 0 mm 2 mps 734 mmHg 91%
16:00 +15°C° 0.1 mm 2 mps 734 mmHg 92%
17:00 +14°C° 0.1 mm 3 mps 734 mmHg 93%
18:00 +14°C° 0.1 mm 3 mps 734 mmHg 94%
19:00 +13°C° 0.1 mm 3 mps 734 mmHg 94%
20:00 +13°C° 0.1 mm 4 mps 734 mmHg 95%
21:00 +12°C° 0.1 mm 4 mps 735 mmHg 95%
22:00 +12°C° 0.1 mm 4 mps 734 mmHg 96%
23:00 +12°C° 0.1 mm 4 mps 734 mmHg 96%

Day after tomorrow, 21 June, Monday

Time Temperature Precipitation Wind Pressure Humidity
00:00 +11°C° 0.1 mm 4 mps 734 mmHg 96%
01:00 +11°C° 0.1 mm 4 mps 734 mmHg 96%
02:00 +11°C° 0.1 mm 4 mps 734 mmHg 96%
03:00 +11°C° 0.1 mm 4 mps 734 mmHg 96%
04:00 +9°C° 0.1 mm 5 mps 735 mmHg 96%
05:00 +9°C° 0.1 mm 5 mps 735 mmHg 95%
06:00 +9°C° 0.1 mm 6 mps 735 mmHg 95%
07:00 +9°C° 0.1 mm 6 mps 735 mmHg 95%
08:00 +9°C° 0.1 mm 6 mps 735 mmHg 94%
09:00 +9°C° 0.1 mm 6 mps 735 mmHg 94%
10:00 +9°C° 0.8 mm 7 mps 736 mmHg 94%
11:00 +9°C° 0.8 mm 7 mps 736 mmHg 94%
12:00 +9°C° 0.8 mm 7 mps 736 mmHg 94%
13:00 +9°C° 1.6 mm 7 mps 736 mmHg 95%
14:00 +9°C° 1.6 mm 8 mps 736 mmHg 95%
15:00 +9°C° 1.6 mm 8 mps 737 mmHg 95%
16:00 +9°C° 0.7 mm 8 mps 737 mmHg 94%
17:00 +8°C° 0.7 mm 9 mps 737 mmHg 94%
18:00 +8°C° 0.7 mm 9 mps 738 mmHg 94%
19:00 +8°C° 0.3 mm 9 mps 738 mmHg 93%
20:00 +7°C° 0.3 mm 8 mps 738 mmHg 93%
21:00 +7°C° 0.3 mm 8 mps 739 mmHg 93%
22:00 +7°C° 0.3 mm 8 mps 739 mmHg 93%
23:00 +7°C° 0.3 mm 8 mps 739 mmHg 93%

22 June, Tuesday

Time Temperature Precipitation Wind Pressure Humidity
00:00 +8°C° 0.3 mm 7 mps 740 mmHg 94%
01:00 +8°C° 0.2 mm 7 mps 740 mmHg 94%
02:00 +8°C° 0.2 mm 7 mps 740 mmHg 94%
03:00 +8°C° 0.2 mm 7 mps 740 mmHg 94%
04:00 +8°C° 0.1 mm 7 mps 741 mmHg 93%
05:00 +8°C° 0.1 mm 7 mps 741 mmHg 93%
06:00 +6°C° 0.1 mm 7 mps 741 mmHg 93%
07:00 +8°C° 0 mm 7 mps 742 mmHg 90%
08:00 +8°C° 0 mm 7 mps 742 mmHg 87%
09:00 +9°C° 0 mm 7 mps 742 mmHg 85%
10:00 +9°C° 0 mm 7 mps 743 mmHg 83%
11:00 +9°C° 0 mm 6 mps 743 mmHg 82%
12:00 +10°C° 0 mm 6 mps 743 mmHg 80%
13:00 +10°C° 0 mm 5 mps 743 mmHg 81%
14:00 +11°C° 0 mm 4 mps 743 mmHg 81%
15:00 +12°C° 0 mm 4 mps 743 mmHg 81%
16:00 +12°C° 0 mm 4 mps 743 mmHg 80%
17:00 +12°C° 0 mm 4 mps 744 mmHg 79%
18:00 +13°C° 0 mm 4 mps 744 mmHg 79%
19:00 +12°C° 0 mm 3 mps 744 mmHg 80%
20:00 +11°C° 0 mm 3 mps 744 mmHg 81%
21:00 +12°C° 0 mm 2 mps 744 mmHg 82%
22:00 +10°C° 0 mm 3 mps 744 mmHg 83%
23:00 +10°C° 0 mm 3 mps 745 mmHg 83%

23 June, Wednesday

Time Temperature Precipitation Wind Pressure Humidity
00:00 +10°C° 0 mm 4 mps 745 mmHg 83%
01:00 +9°C° 0 mm 3 mps 745 mmHg 84%
02:00 +8°C° 0 mm 3 mps 745 mmHg 86%
03:00 +8°C° 0 mm 3 mps 745 mmHg 87%
04:00 +8°C° 0 mm 3 mps 745 mmHg 86%
05:00 +8°C° 0 mm 3 mps 745 mmHg 86%
06:00 +9°C° 0 mm 3 mps 745 mmHg 85%
07:00 +10°C° 0 mm 3 mps 745 mmHg 78%
08:00 +12°C° 0 mm 3 mps 745 mmHg 70%
09:00 +13°C° 0 mm 3 mps 745 mmHg 63%
10:00 +14°C° 0 mm 3 mps 745 mmHg 60%
11:00 +16°C° 0 mm 3 mps 745 mmHg 57%
12:00 +17°C° 0 mm 3 mps 745 mmHg 54%
13:00 +17°C° 0 mm 3 mps 745 mmHg 54%
14:00 +18°C° 0 mm 3 mps 745 mmHg 54%
15:00 +18°C° 0 mm 2 mps 745 mmHg 54%
16:00 +18°C° 0 mm 2 mps 745 mmHg 59%
17:00 +17°C° 0 mm 2 mps 744 mmHg 64%
18:00 +17°C° 0 mm 2 mps 744 mmHg 70%
19:00 +15°C° 0 mm 2 mps 744 mmHg 74%
20:00 +13°C° 0 mm 2 mps 744 mmHg 78%
21:00 +10°C° 0 mm 2 mps 744 mmHg 83%
22:00 +11°C° 0 mm 1 mps 745 mmHg 83%
23:00 +11°C° 0 mm 1 mps 745 mmHg 84%

24 June, Thursday

Time Temperature Precipitation Wind Pressure Humidity
00:00 +10°C° 0 mm 1 mps 745 mmHg 84%
01:00 +10°C° 0 mm 1 mps 744 mmHg 84%
02:00 +10°C° 0 mm 1 mps 744 mmHg 84%
03:00 +9°C° 0 mm 1 mps 744 mmHg 84%
04:00 +10°C° 0 mm 1 mps 744 mmHg 83%
05:00 +10°C° 0 mm 0 mps 744 mmHg 81%
06:00 +11°C° 0 mm 0 mps 744 mmHg 80%
07:00 +14°C° 0 mm 1 mps 744 mmHg 75%
08:00 +15°C° 0 mm 2 mps 744 mmHg 70%
09:00 +16°C° 0 mm 2 mps 743 mmHg 65%
10:00 +17°C° 0 mm 3 mps 743 mmHg 66%
11:00 +18°C° 0 mm 3 mps 743 mmHg 67%
12:00 +18°C° 0 mm 4 mps 743 mmHg 69%
13:00 +18°C° 0 mm 4 mps 743 mmHg 71%
14:00 +18°C° 0 mm 4 mps 742 mmHg 73%
15:00 +16°C° 0 mm 5 mps 742 mmHg 75%
16:00 +16°C° 0 mm 5 mps 742 mmHg 76%
17:00 +15°C° 0 mm 4 mps 742 mmHg 77%
18:00 +14°C° 0 mm 4 mps 741 mmHg 78%
19:00 +13°C° 0 mm 3 mps 741 mmHg 83%
20:00 +12°C° 0 mm 3 mps 741 mmHg 88%
21:00 +12°C° 0 mm 2 mps 741 mmHg 92%
22:00 +12°C° 0.1 mm 2 mps 741 mmHg 93%
23:00 +12°C° 0.1 mm 2 mps 741 mmHg 93%
Show more